Weather History for Key West, FL

Change the Weather History Date:

Sunday, August 10, 2014

  Actual Average Record
Temperature  
Mean Temperature 88 °F 85 °F  
Max Temperature 91 °F 90 °F 95 °F (1956)
Min Temperature 84 °F 80 °F 71 °F (1938)
Degree Days  
Heating Degree Days 0 0  
Month to date heating degree days 0 0  
Since 1 June heating degree days 0 0  
Since 1 July heating degree days 0 0  
Cooling Degree Days 23 20  
Month to date cooling degree days 208 200  
Year to date cooling degree days 3055 2785  
Since 1 June cooling degree days 1433 1355  
Growing Degree Days 38 (Base 50)    
Moisture  
Dew Point 75 °F    
Average Humidity 65    
Maximum Humidity 74    
Minimum Humidity 56    
Precipitation  
Precipitation 0.00 in 0.16 in 2.69 in (2002)
Month to date precipitation 1.60 1.52  
Year to date precipitation 19.69 19.81  
Snow  
Snow 0.00 in - - ()
Month to date snowfall 0.0  
Since 1 June snowfall 0.0  
Since 1 July snowfall 0.0  
Snow Depth 0.00 in    
Sea Level Pressure  
Sea Level Pressure 30.05 in    
Wind  
Wind Speed 8 mph (ESE)    
Max Wind Speed 15 mph    
Max Gust Speed 18 mph    
Visibility 10 miles    
Events      
T = Trace of Precipitation, MM = Missing Value Source: NWS Daily Summary

Daily Weather History Graph

Daily Weather History Graph

Search for Another Location

Airport:

Trip Planner

Search our weather history database for the weather conditions in past years. The results will help you decide how hot, cold, wet, or windy it might be!

Date:

Astronomy

Aug. 10, 2014 Rise Set
Actual Time 6:59 AM EDT 8:04 PM EDT
Civil Twilight 6:35 AM EDT 8:28 PM EDT
Nautical Twilight 6:06 AM EDT 8:57 PM EDT
Astronomical Twilight 5:37 AM EDT 9:26 PM EDT
Moon 7:59 PM EDT (8/10) 6:45 AM EDT (8/10)
Length of Visible Light 13h 53m
Length of Day
13h 05m
Full, 100% of the Moon is Illuminated
Aug 10
Full
Aug 10
Full
Aug 17
Last Quarter
Aug 25
New
Sep 2
First Quarter

Hourly Weather History & Observations

Time (EDT) Temp. Heat Index Dew Point Humidity Pressure Visibility Wind Dir Wind Speed Gust Speed Precip Events Conditions
12:53 AM 84.9 °F 93.3 °F 75.0 °F 72% 30.08 in 10.0 mi East 4.6 mph - N/A   Clear
1:53 AM 84.9 °F 92.1 °F 73.9 °F 69% 30.07 in 10.0 mi ESE 8.1 mph - N/A   Clear
2:53 AM 84.9 °F 93.3 °F 75.0 °F 72% 30.06 in 10.0 mi East 6.9 mph - N/A   Scattered Clouds
3:53 AM 84.9 °F 92.1 °F 73.9 °F 69% 30.05 in 10.0 mi SE 8.1 mph - N/A   Partly Cloudy
4:53 AM 84.9 °F 93.3 °F 75.0 °F 72% 30.04 in 10.0 mi ESE 8.1 mph - N/A   Partly Cloudy
5:53 AM 84.0 °F 91.9 °F 75.0 °F 74% 30.04 in 10.0 mi ENE 4.6 mph - N/A   Clear
6:53 AM 84.9 °F 93.3 °F 75.0 °F 72% 30.04 in 10.0 mi East 9.2 mph - N/A   Mostly Cloudy
7:53 AM 86.0 °F 95.1 °F 75.2 °F 70% 30.05 in 10.0 mi ESE 9.2 mph - N/A   Partly Cloudy
8:53 AM 87.1 °F 96.3 °F 75.0 °F 67% 30.06 in 10.0 mi ESE 11.5 mph - N/A   Clear
9:53 AM 87.8 °F 97.6 °F 75.2 °F 66% 30.07 in 10.0 mi ESE 9.2 mph - N/A   Clear
10:53 AM 89.1 °F 100.2 °F 75.9 °F 65% 30.08 in 10.0 mi ESE 10.4 mph - N/A   Clear
11:53 AM 89.1 °F 100.2 °F 75.9 °F 65% 30.09 in 10.0 mi ESE 8.1 mph - N/A   Partly Cloudy
12:53 PM 90.0 °F 102.5 °F 77.0 °F 65% 30.08 in 10.0 mi East 9.2 mph - N/A   Clear
1:53 PM 90.0 °F 102.5 °F 77.0 °F 65% 30.07 in 10.0 mi ESE 9.2 mph - N/A   Clear
2:53 PM 90.0 °F 102.5 °F 77.0 °F 65% 30.05 in 10.0 mi ESE 9.2 mph - N/A   Clear
3:53 PM 91.4 °F 100.1 °F 73.4 °F 55% 30.04 in 10.0 mi SE 9.2 mph - N/A   Clear
4:53 PM 90.0 °F 99.0 °F 73.9 °F 59% 30.02 in 10.0 mi SE 8.1 mph - N/A   Clear
5:53 PM 89.1 °F 98.0 °F 73.9 °F 61% 30.02 in 10.0 mi ESE 6.9 mph - N/A   Clear
6:53 PM 88.0 °F 96.5 °F 73.9 °F 63% 30.01 in 10.0 mi ESE 6.9 mph - N/A   Clear
7:53 PM 87.8 °F 95.6 °F 73.4 °F 62% 30.03 in 10.0 mi ESE 6.9 mph - N/A   Clear
8:53 PM 86.0 °F 93.8 °F 73.9 °F 67% 30.04 in 10.0 mi East 5.8 mph - N/A   Clear
9:53 PM 86.0 °F 95.1 °F 75.0 °F 70% 30.06 in 10.0 mi East 5.8 mph - N/A   Clear
10:53 PM 86.0 °F 95.1 °F 75.0 °F 70% 30.06 in 10.0 mi East 8.1 mph - N/A   Clear